Regional Weather Roundup
Issued by NWS Portland, ME

Current Version | Previous Version | Text Only | Print | Product List | Glossary Off
Versions: 1 2 3 4 5 6 7 8 9 10 11 12 13 14 15 16 17 18 19 20 21 22 23 24 25 26 27 28 29 30 31 32 33 34 35 36 37 38 39 40 41 42 43 44 45 46 47 48 49 50
000 ASUS41 KGYX 200510 RWRGYX WEATHER ROUNDUP FOR MAINE AND NEW HAMPSHIRE NATIONAL WEATHER SERVICE GRAY ME 100 AM EDT WED MAR 20 2019 MEZ002-005-006-010-012-015-018-020-021-024-026-027-029-200600- MAINE CITY SKY/WX TMP DP RH WIND PRES REMARKS PORTLAND FAIR 26 10 50 CALM 30.40S SANFORD FAIR 18 14 84 CALM 30.40S BAR HARBOR FAIR 21 11 65 CALM 30.38S WISCASSET FAIR 20 17 88 CALM 30.41R ROCKLAND FAIR 20 15 81 CALM 30.40R FRYEBURG FAIR 16 7 67 CALM 30.39R LEWISTONAUBURN FAIR 19 10 68 CALM 30.39S AUGUSTA FAIR 24 2 38 CALM 30.38S WATERVILLE FAIR 21 4 47 CALM 30.35S BANGOR FAIR 19 8 62 W3 30.38R GREENVILLE N/A 16 -5 39 NW6 30.25S MILLINOCKET FAIR 14 2 58 CALM 30.35S HOULTON FAIR 2 -3 80 CALM 30.31S PRESQUE ISLE FAIR 6 0 76 CALM 30.31F FRENCHVILLE FAIR 14 -3 47 S7 30.23F CARIBOU FAIR 8 -3 61 CALM 30.28F $$ NHZ002-005-008-009-011-012-014-200600- NEW HAMPSHIRE CITY SKY/WX TMP DP RH WIND PRES REMARKS PORTSMOUTH CLEAR 25 10 54 CALM 30.39R ROCHESTER FAIR 23 12 62 NW6 30.39R NASHUA FAIR 23 18 81 W3 30.41R MANCHESTER FAIR 27 12 53 CALM 30.39R CONCORD FAIR 21 15 78 CALM 30.40R LACONIA FAIR 19 12 74 CALM 30.39R PLYMOUTH FAIR 15 11 82 CALM 30.40R BERLIN FAIR 8 4 83 CALM 30.33S WHITEFIELD FAIR 14 6 70 CALM 30.34S JAFFREY FAIR 22 18 85 CALM 30.36S KEENE FAIR 22 19 89 CALM 30.40R LEBANON FAIR 21 11 65 CALM 30.38R MT WASHINGTON CLEAR 1 -2 85 NW44 N/A WCI -28 $$ VTZ005-007-008-200600- VERMONT CITY SKY/WX TMP DP RH WIND PRES REMARKS ST JOHNSBURY N/A 17 10 74 MISG 30.35S MONTPELIER FAIR 16 6 65 CALM 30.37S BURLINGTON FAIR 22 13 68 SE3 30.36S $$ MAZ007-012-024-CTZ003-RIZ002-NYZ038-NYZ072-200600- SOUTHERN NEW ENGLAND AND NY CITY SKY/WX TMP DP RH WIND PRES REMARKS BOSTON FAIR 34 23 64 N3 30.41S WORCESTER FAIR 29 15 56 W8 30.36S NANTUCKET FAIR 34 31 88 W6 30.40S PROVIDENCE FAIR 31 18 58 W5 30.41F HARTFORD FAIR 30 19 63 NW5 30.40F ALBANY MOCLDY 31 18 58 CALM 30.40S NEW YORK CITY FAIR 40 25 55 S8 30.41S $$ ANZ081-ANZ082-ANZ150-NHZ014-MEZ023>029-200600- COASTAL MARINE OBSERVATIONS STATION/POSITION TIME TEMP WIND PRES WAVE AIR SEA DIR/SP/G HT/PER (UTC) (F) (DEG/KT/KT) (MB) (FT/S) MOUNT DESERT ROC 0500 33 300/ 12/ 13 1028.7R MATINICUS ROCK 0400 33 330/ 11/ 12 1028.6R ISLE OF SHOALS 0400 36 80/ 3/ 3 1029.3R CASHES LEDGE BUO 0450 35 39 1029.1S 2/ 3 $$ .............KEY.............. WCI - WIND CHILL TC - TEMPERATURE IN CELSIUS VSB - VISIBILITY IN MILES HX - HEAT INDEX FAIR- INDICATES FEW OR NO CLOUDS BELOW 12,000 FT, WITH NO SIGNIFICANT WEATHER AND/OR OBSTRUCTIONS TO VISIBILITY.

USA.gov is the U.S. government's official web portal to all federal, state and local government web resources and services.